This demonstration page uses our WeatherBlox Daily Observations layout. Learn more.

Left ArrowRight Arrow

41.12389, -100.76542

Hourly Observations for February 5, 2017

Temp ( °F °C ) Dew Point ( °F °C ) Humidity (%) Winds ( mph kmh ) Pressure ( in mb ) Visibility ( mi km ) Precip ( " mm )
12:53 am 00:53 Clear 25 -3.9 21 -6.1 85 85 N 3 6 30.02 1017 10 16 0.00 0.00
1:53 am 01:53 Clear 22 -5.6 18 -7.8 85 85 SE 6 9 30.01 1016 10 16 0.00 0.00
2:53 am 02:53 Clear 20 -6.7 17 -8.3 89 89 Calm 30.01 1016 10 16 0.00 0.00
3:53 am 03:53 Mostly Clear 20 -6.7 17 -8.3 89 89 NNW 3 6 30.01 1016 10 16 0.00 0.00
4:53 am 04:53 Clear 19 -7.2 16 -8.9 88 88 Calm 30.02 1017 10 16 0.00 0.00
5:53 am 05:53 Partly Cloudy 21 -6.1 18 -7.8 88 88 E 3 6 30.05 1018 10 16 0.00 0.00
6:53 am 06:53 Mostly Cloudy 22 -5.6 19 -7.2 89 89 E 3 6 30.06 1018 10 16 0.00 0.00
7:53 am 07:53 Partly Cloudy 21 -6.1 18 -7.8 88 88 E 3 6 30.09 1019 8 13 0.00 0.00
8:53 am 08:53 Cloudy 26 -3.3 22 -5.6 84 84 SE 7 11 30.08 1019 10 16 0.00 0.00
9:53 am 09:53 Sunny 32 0 26 -3.3 79 79 SSE 6 9 30.05 1018 10 16 0.00 0.00
10:53 am 10:53 Sunny 38 3.3 28 -2.2 68 68 S 13 20 30.05 1018 10 16 0.00 0.00
11:53 am 11:53 Sunny 41 5 29 -1.7 62 62 S 10 17 30.04 1017 10 16 0.00 0.00
12:53 pm 12:53 Sunny 46 7.8 28 -2.2 50 50 S 7 11 30.01 1016 10 16 0.00 0.00
1:53 pm 13:53 Sunny 52 11.1 30 -1.1 43 43 S 12 19 29.96 1015 10 16 0.00 0.00
2:53 pm 14:53 Sunny 54 12.2 30 -1.1 40 40 S 12 19 29.92 1013 10 16 0.00 0.00
3:53 pm 15:53 Sunny 56 13.3 30 -1.1 37 37 S 12 19 29.91 1013 10 16 0.00 0.00
4:53 pm 16:53 Sunny 55 12.8 30 -1.1 38 38 SSE 8 13 29.92 1013 10 16 0.00 0.00
5:53 pm 17:53 Sunny 48 8.9 28 -2.2 46 46 SE 6 9 29.93 1013 10 16 0.00 0.00
6:53 pm 18:53 Clear 44 6.7 28 -2.2 53 53 SE 7 11 29.92 1013 10 16 0.00 0.00
7:53 pm 19:53 Clear 38 3.3 27 -2.8 65 65 SSE 7 11 29.93 1014 10 16 0.00 0.00
8:53 pm 20:53 Clear 38 3.3 27 -2.8 65 65 ESE 8 13 29.91 1013 10 16 0.00 0.00
9:53 pm 21:53 Clear 41 5 26 -3.3 55 55 S 15 24 29.89 1012 10 16 0.00 0.00
10:53 pm 22:53 Clear 38 3.3 26 -3.3 62 62 S 10 17 29.87 1011 10 16 0.00 0.00
11:53 pm 23:53 Clear 35 1.7 26 -3.3 70 70 SSE 7 11 29.87 1011 10 16 0.00 0.00

Powered by AerisWeather